• In Deutschland
  • Länderverzeichnis
  • Für 7 Tage
  • Wassertemperatur
  • Satellitenkarten
  • Wetterkarte
  • Widgets
  • user-avatar
    Anmelden

    Stündliche Wetter Timmendorfer Strand

    Heute, 17 Oktober, Dienstag

    Zeit Temperatur Niederschläge Wind Luftdruck Luftfeuchtigkeit
    00:00 +15°C° 0,1 mm 4 m/S 762 mmHg 86%
    01:00 +15°C° 0 mm 4 m/S 762 mmHg 84%
    02:00 +15°C° 0 mm 4 m/S 762 mmHg 84%
    03:00 +15°C° 0 mm 4 m/S 762 mmHg 84%
    04:00 +15°C° 0 mm 4 m/S 762 mmHg 85%
    05:00 +14°C° 0 mm 4 m/S 762 mmHg 87%
    06:00 +14°C° 0 mm 4 m/S 762 mmHg 88%
    07:00 +14°C° 0 mm 5 m/S 762 mmHg 90%
    08:00 +15°C° 0 mm 5 m/S 762 mmHg 84%
    09:00 +16°C° 0 mm 6 m/S 762 mmHg 77%
    10:00 +17°C° 0 mm 6 m/S 763 mmHg 71%
    11:00 +17°C° 0 mm 6 m/S 762 mmHg 68%
    12:00 +17°C° 0 mm 6 m/S 762 mmHg 64%
    13:00 +18°C° 0 mm 7 m/S 762 mmHg 61%
    14:00 +17°C° 0 mm 6 m/S 762 mmHg 63%
    15:00 +17°C° 0 mm 6 m/S 762 mmHg 66%
    16:00 +17°C° 0 mm 5 m/S 761 mmHg 68%
    17:00 +16°C° 0 mm 5 m/S 761 mmHg 72%
    18:00 +15°C° 0 mm 5 m/S 761 mmHg 76%
    19:00 +14°C° 0 mm 5 m/S 761 mmHg 79%
    20:00 +13°C° 0 mm 4 m/S 761 mmHg 81%
    21:00 +13°C° 0 mm 4 m/S 761 mmHg 83%
    22:00 +12°C° 0 mm 4 m/S 761 mmHg 85%
    23:00 +12°C° 0 mm 4 m/S 761 mmHg 86%

    Morgen, 18 Oktober, Mittwoch

    Zeit Temperatur Niederschläge Wind Luftdruck Luftfeuchtigkeit
    00:00 +12°C° 0 mm 4 m/S 761 mmHg 86%
    01:00 +11°C° 0 mm 4 m/S 761 mmHg 87%
    02:00 +11°C° 0 mm 4 m/S 760 mmHg 88%
    03:00 +11°C° 0 mm 4 m/S 760 mmHg 89%
    04:00 +10°C° 0 mm 4 m/S 760 mmHg 89%
    05:00 +10°C° 0 mm 4 m/S 760 mmHg 90%
    06:00 +10°C° 0 mm 3 m/S 760 mmHg 90%
    07:00 +10°C° 0 mm 3 m/S 760 mmHg 90%
    08:00 +11°C° 0 mm 3 m/S 760 mmHg 85%
    09:00 +12°C° 0 mm 3 m/S 760 mmHg 79%
    10:00 +15°C° 0 mm 2 m/S 760 mmHg 74%
    11:00 +16°C° 0 mm 2 m/S 760 mmHg 70%
    12:00 +18°C° 0 mm 1 m/S 760 mmHg 67%
    13:00 +18°C° 0 mm 1 m/S 759 mmHg 64%
    14:00 +18°C° 0 mm 1 m/S 759 mmHg 66%
    15:00 +18°C° 0 mm 1 m/S 759 mmHg 69%
    16:00 +16°C° 0 mm 0 m/S 759 mmHg 71%
    17:00 +16°C° 0 mm 1 m/S 759 mmHg 73%
    18:00 +15°C° 0 mm 1 m/S 759 mmHg 75%
    19:00 +14°C° 0 mm 1 m/S 759 mmHg 78%
    20:00 +14°C° 0 mm 2 m/S 759 mmHg 79%
    21:00 +14°C° 0 mm 2 m/S 759 mmHg 80%
    22:00 +14°C° 0 mm 2 m/S 759 mmHg 81%
    23:00 +14°C° 0 mm 2 m/S 759 mmHg 82%

    übermorgen, 19 Oktober, Donnerstag

    Zeit Temperatur Niederschläge Wind Luftdruck Luftfeuchtigkeit
    00:00 +14°C° 0 mm 2 m/S 758 mmHg 84%
    01:00 +12°C° 0 mm 3 m/S 758 mmHg 85%
    02:00 +12°C° 0 mm 3 m/S 758 mmHg 86%
    03:00 +12°C° 0 mm 3 m/S 758 mmHg 87%
    04:00 +12°C° 0 mm 3 m/S 758 mmHg 88%
    05:00 +12°C° 0 mm 3 m/S 758 mmHg 89%
    06:00 +12°C° 0 mm 3 m/S 758 mmHg 91%
    07:00 +12°C° 0 mm 3 m/S 757 mmHg 93%
    08:00 +12°C° 0,2 mm 3 m/S 757 mmHg 91%
    09:00 +13°C° 0,2 mm 3 m/S 758 mmHg 90%
    10:00 +13°C° 0,2 mm 3 m/S 758 mmHg 89%
    11:00 +15°C° 0,1 mm 2 m/S 757 mmHg 86%
    12:00 +16°C° 0,1 mm 2 m/S 757 mmHg 82%
    13:00 +17°C° 0,1 mm 2 m/S 757 mmHg 79%
    14:00 +17°C° 0 mm 2 m/S 757 mmHg 79%
    15:00 +17°C° 0 mm 2 m/S 757 mmHg 79%
    16:00 +17°C° 0 mm 2 m/S 757 mmHg 79%
    17:00 +17°C° 0 mm 2 m/S 757 mmHg 81%
    18:00 +16°C° 0 mm 3 m/S 757 mmHg 84%
    19:00 +14°C° 0 mm 3 m/S 757 mmHg 86%
    20:00 +14°C° 0 mm 3 m/S 757 mmHg 86%
    21:00 +14°C° 0 mm 3 m/S 757 mmHg 86%
    22:00 +14°C° 0 mm 4 m/S 757 mmHg 86%
    23:00 +14°C° 0,2 mm 4 m/S 756 mmHg 86%

    20 Oktober, Freitag

    Zeit Temperatur Niederschläge Wind Luftdruck Luftfeuchtigkeit
    00:00 +14°C° 0,2 mm 4 m/S 756 mmHg 87%
    01:00 +14°C° 0,2 mm 4 m/S 756 mmHg 87%
    02:00 +13°C° 0,1 mm 4 m/S 756 mmHg 87%
    03:00 +13°C° 0,1 mm 4 m/S 755 mmHg 86%
    04:00 +13°C° 0,1 mm 5 m/S 755 mmHg 86%
    05:00 +13°C° 0 mm 5 m/S 755 mmHg 87%
    06:00 +13°C° 0 mm 5 m/S 755 mmHg 88%
    07:00 +13°C° 0 mm 5 m/S 755 mmHg 88%
    08:00 +13°C° 0 mm 5 m/S 755 mmHg 85%
    09:00 +14°C° 0 mm 5 m/S 755 mmHg 82%
    10:00 +15°C° 0 mm 6 m/S 755 mmHg 79%
    11:00 +15°C° 0,1 mm 6 m/S 755 mmHg 80%
    12:00 +16°C° 0,1 mm 6 m/S 754 mmHg 81%
    13:00 +16°C° 0,1 mm 6 m/S 754 mmHg 82%
    14:00 +16°C° 0,5 mm 6 m/S 754 mmHg 81%
    15:00 +15°C° 0,5 mm 7 m/S 754 mmHg 81%
    16:00 +15°C° 0,5 mm 7 m/S 753 mmHg 81%
    17:00 +14°C° 0,2 mm 7 m/S 754 mmHg 82%
    18:00 +14°C° 0,2 mm 7 m/S 754 mmHg 83%
    19:00 +12°C° 0,2 mm 7 m/S 754 mmHg 84%
    20:00 +11°C° 0 mm 7 m/S 755 mmHg 85%
    21:00 +10°C° 0 mm 7 m/S 755 mmHg 86%
    22:00 +10°C° 0 mm 7 m/S 756 mmHg 87%
    23:00 +9°C° 0 mm 6 m/S 756 mmHg 89%

    21 Oktober, Samstag

    Zeit Temperatur Niederschläge Wind Luftdruck Luftfeuchtigkeit
    00:00 +9°C° 0 mm 6 m/S 756 mmHg 90%
    01:00 +9°C° 0 mm 5 m/S 756 mmHg 92%
    02:00 +9°C° 0 mm 5 m/S 756 mmHg 92%
    03:00 +9°C° 0 mm 5 m/S 756 mmHg 93%
    04:00 +8°C° 0 mm 4 m/S 756 mmHg 93%
    05:00 +8°C° 0 mm 4 m/S 756 mmHg 94%
    06:00 +9°C° 0 mm 3 m/S 756 mmHg 94%
    07:00 +9°C° 0 mm 3 m/S 756 mmHg 95%
    08:00 +10°C° 0,1 mm 3 m/S 756 mmHg 93%
    09:00 +11°C° 0,1 mm 3 m/S 756 mmHg 92%
    10:00 +12°C° 0,1 mm 4 m/S 756 mmHg 91%
    11:00 +13°C° 0 mm 4 m/S 756 mmHg 90%
    12:00 +14°C° 0 mm 4 m/S 756 mmHg 90%
    13:00 +15°C° 0 mm 4 m/S 756 mmHg 89%
    14:00 +15°C° 1,2 mm 4 m/S 755 mmHg 91%
    15:00 +15°C° 1,2 mm 4 m/S 755 mmHg 94%
    16:00 +16°C° 1,2 mm 3 m/S 755 mmHg 96%
    17:00 +15°C° 1,1 mm 4 m/S 755 mmHg 95%
    18:00 +14°C° 1,1 mm 4 m/S 755 mmHg 95%
    19:00 +14°C° 1,1 mm 4 m/S 755 mmHg 94%
    20:00 +14°C° 0,1 mm 4 m/S 755 mmHg 94%
    21:00 +13°C° 0,1 mm 4 m/S 755 mmHg 93%
    22:00 +12°C° 0,1 mm 4 m/S 755 mmHg 92%
    23:00 +12°C° 0 mm 4 m/S 755 mmHg 92%

    22 Oktober, Sonntag

    Zeit Temperatur Niederschläge Wind Luftdruck Luftfeuchtigkeit
    00:00 +11°C° 0 mm 4 m/S 755 mmHg 92%
    01:00 +11°C° 0 mm 4 m/S 755 mmHg 92%
    02:00 +10°C° 0 mm 5 m/S 755 mmHg 91%
    03:00 +10°C° 0 mm 5 m/S 754 mmHg 91%
    04:00 +9°C° 0 mm 6 m/S 754 mmHg 90%
    05:00 +9°C° 0 mm 6 m/S 754 mmHg 89%
    06:00 +9°C° 0 mm 6 m/S 754 mmHg 88%
    07:00 +9°C° 0 mm 6 m/S 754 mmHg 87%
    08:00 +9°C° 0 mm 7 m/S 754 mmHg 84%
    09:00 +10°C° 0 mm 7 m/S 754 mmHg 80%
    10:00 +10°C° 0 mm 8 m/S 754 mmHg 76%
    11:00 +11°C° 0,1 mm 8 m/S 754 mmHg 74%
    12:00 +11°C° 0,1 mm 8 m/S 754 mmHg 71%
    13:00 +11°C° 0,1 mm 8 m/S 754 mmHg 69%
    14:00 +11°C° 0,1 mm 7 m/S 754 mmHg 70%
    15:00 +11°C° 0,1 mm 7 m/S 754 mmHg 71%
    16:00 +10°C° 0,1 mm 7 m/S 754 mmHg 72%
    17:00 +10°C° 0,1 mm 7 m/S 754 mmHg 77%
    18:00 +9°C° 0,1 mm 7 m/S 754 mmHg 81%
    19:00 +9°C° 0,1 mm 7 m/S 754 mmHg 85%
    20:00 +9°C° 0,2 mm 7 m/S 754 mmHg 86%
    21:00 +9°C° 0,2 mm 7 m/S 754 mmHg 86%
    22:00 +9°C° 0,2 mm 7 m/S 754 mmHg 87%
    23:00 +8°C° 0 mm 7 m/S 754 mmHg 87%
    Mehr zeigen